Regional Weather Roundup
Issued by NWS

Home | Current Version | Previous Version | Graphics & Text | Print | Product List | Glossary Off
Versions: 1 2 3 4 5 6 7 8 9 10 11 12 13 14 15 16 17 18 19 20 21 22 23 24 25 26 27 28 29 30 31 32 33 34 35 36 37 38 39 40 41 42 43 44 45 46 47 48 49 50

000
ASUS43 KTOP 200859
RWRKS

WEATHER ROUNDUP FOR KANSAS
NATIONAL WEATHER SERVICE GOODLAND KS
400 AM CDT FRI OCT 20 2017

NOTE:  "FAIR" INDICATES FEW OR NO CLOUDS BELOW 12,000 FEET WITH NO
SIGNIFICANT WEATHER AND/OR OBSTRUCTIONS TO VISIBILITY.

KSZ001>006-013>018-027>032-041>047-201000-
NORTHWEST KANSAS

CITY           SKY/WX    TMP DP  RH WIND       PRES   REMARKS
GOODLAND       PTCLDY    54  47  77 S17G28    29.82F
HAYS           FAIR      59  48  67 S16       29.92F
HILL CITY      FAIR      60  47  61 S15G24    29.88F
RUSSELL        FAIR      58  51  78 S17G25    29.93F
$$

KSZ061>065-074>080-084>089-201000-
SOUTHWEST KANSAS

CITY           SKY/WX    TMP DP  RH WIND       PRES   REMARKS
DODGE CITY     FAIR      56  47  71 S14       29.95F
ELKHART          N/A     58  53  84 S16         N/A
GARDEN CITY    FAIR      56  45  66 SE13      29.91F
GREAT BEND     FAIR      60  49  66 S21       29.95F
LIBERAL        FAIR      60  49  66 S18       29.92F
$$

KSZ066>073-081>083-090>101-201000-
SOUTHEAST KANSAS

CITY           SKY/WX    TMP DP  RH WIND       PRES   REMARKS
CHANUTE        FAIR      54  51  90 SE9       30.10S
COFFEYVILLE    FAIR      54  52  93 SE5       30.10S
HUTCHINSON     FAIR      59  53  80 S10       30.00F
MEDICINE LODGE   N/A     55  49  80 E6        30.00F
NEWTON         FAIR      58  53  84 S14       30.03F
PARSONS        FAIR      57  52  83 S5        30.11S
WICHITA INTL   FAIR      57  54  89 S12       30.03F
WICHITA JABRA  FAIR      58  55  90 S12       30.03F
WINFIELD       FAIR      57  55  93 SE6       30.06F
$$

KSZ007>012-019>026-033>040-048>060-102>105-201000-
NORTHEAST KANSAS

CITY           SKY/WX    TMP DP  RH WIND       PRES   REMARKS
CONCORDIA      FAIR      60  53  77 S21G29    29.95F
EMPORIA        FAIR      57  52  83 S14       30.05F
LAWRENCE       FAIR      56  51  84 SE5       30.07S
MANHATTAN      FAIR      61  54  77 SW9       30.01F
OLATHE IND     FAIR      53  50  89 S8        30.08F
OLATHE EXE     FAIR      55  51  86 S7        30.08F
SALINA         FAIR      63  54  72 S13G24    29.98F
TOPEKA BILLARD FAIR      61  54  77 S10       30.04F
TOPEKA FORBES  FAIR      59  53  80 S7        30.05F
$$




USA.gov is the U.S. government's official web portal to all federal, state and local government web resources and services.